Time,TemperatureF,DewpointF,PressureIn,WindDirection,WindDirectionDegrees,WindSpeedMPH,WindSpeedGustMPH,Humidity,HourlyPrecipIn,Conditions,Clouds,dailyrainin,SoftwareType,DateUTC
2013-03-18 00:00:00,56.5,46.4,29.89,South,188,0.0,1.0,69,0.00,,,0.00,Wunderground v.1.15,2013-03-18 04:00:00,
2013-03-18 00:02:00,56.3,46.6,29.89,South,188,0.0,1.0,70,0.00,,,0.00,Wunderground v.1.15,2013-03-18 04:02:00,
2013-03-18 00:03:00,56.3,46.6,29.89,South,188,1.0,1.0,70,0.00,,,0.00,Wunderground v.1.15,2013-03-18 04:03:00,
2013-03-18 00:08:00,56.5,46.8,29.89,SSW,196,1.0,2.0,70,0.00,,,0.00,Wunderground v.1.15,2013-03-18 04:08:00,
2013-03-18 00:13:00,56.5,46.8,29.89,SSW,196,0.0,4.0,70,0.00,,,0.00,Wunderground v.1.15,2013-03-18 04:13:00,
2013-03-18 00:18:00,56.3,46.6,29.89,SSW,196,0.0,4.0,70,0.00,,,0.00,Wunderground v.1.15,2013-03-18 04:18:00,
2013-03-18 00:23:00,56.2,46.5,29.89,SSW,196,3.0,3.0,70,0.00,,,0.00,Wunderground v.1.15,2013-03-18 04:23:00,
2013-03-18 00:28:00,55.9,46.6,29.88,SE,141,0.0,3.0,71,0.00,,,0.00,Wunderground v.1.15,2013-03-18 04:28:00,
2013-03-18 00:34:00,55.9,47.0,29.88,SSE,166,1.0,5.0,72,0.00,,,0.00,Wunderground v.1.15,2013-03-18 04:34:00,
2013-03-18 00:39:00,56.2,47.3,29.88,SSE,166,0.0,5.0,72,0.00,,,0.00,Wunderground v.1.15,2013-03-18 04:39:00,
2013-03-18 00:45:00,55.9,47.0,29.88,SSE,166,0.0,2.0,72,0.00,,,0.00,Wunderground v.1.15,2013-03-18 04:45:00,
2013-03-18 00:50:00,55.7,47.2,29.88,SSE,168,0.0,1.0,73,0.00,,,0.00,Wunderground v.1.15,2013-03-18 04:50:00,
2013-03-18 00:55:00,55.6,47.1,29.88,SSE,168,1.0,3.0,73,0.00,,,0.00,Wunderground v.1.15,2013-03-18 04:55:00,
2013-03-18 01:02:00,55.6,47.1,29.87,SSE,159,0.0,2.0,73,0.00,,,0.00,Wunderground v.1.15,2013-03-18 05:02:00,
2013-03-18 01:07:00,55.6,47.1,29.87,SSW,193,4.0,4.0,73,0.00,,,0.00,Wunderground v.1.15,2013-03-18 05:07:00,
2013-03-18 01:12:00,55.6,47.4,29.87,South,190,0.0,1.0,74,0.00,,,0.00,Wunderground v.1.15,2013-03-18 05:12:00,
2013-03-18 01:17:00,55.7,47.5,29.87,South,189,0.0,3.0,74,0.00,,,0.00,Wunderground v.1.15,2013-03-18 05:17:00,
2013-03-18 01:23:00,55.9,47.7,29.87,SE,139,3.0,3.0,74,0.00,,,0.00,Wunderground v.1.15,2013-03-18 05:23:00,
2013-03-18 01:28:00,55.9,48.1,29.86,SE,146,2.0,3.0,75,0.00,,,0.00,Wunderground v.1.15,2013-03-18 05:28:00,
2013-03-18 01:33:00,56.0,48.2,29.86,SSE,151,0.0,2.0,75,0.00,,,0.00,Wunderground v.1.15,2013-03-18 05:33:00,
2013-03-18 01:38:00,56.3,48.5,29.86,ESE,114,9.0,9.0,75,0.00,,,0.00,Wunderground v.1.15,2013-03-18 05:38:00,
2013-03-18 01:44:00,56.3,48.8,29.86,South,174,1.0,3.0,76,0.00,,,0.00,Wunderground v.1.15,2013-03-18 05:44:00,
2013-03-18 01:49:00,56.2,48.7,29.86,SSW,192,5.0,5.0,76,0.00,,,0.00,Wunderground v.1.15,2013-03-18 05:49:00,
2013-03-18 01:54:00,56.0,48.9,29.86,SSW,193,0.0,4.0,77,0.00,,,0.00,Wunderground v.1.15,2013-03-18 05:54:00,
2013-03-18 01:59:00,55.9,48.8,29.86,South,191,0.0,4.0,77,0.00,,,0.00,Wunderground v.1.15,2013-03-18 05:59:00,
2013-03-18 02:04:00,55.7,48.6,29.86,South,191,0.0,4.0,77,0.00,,,0.00,Wunderground v.1.15,2013-03-18 06:04:00,
2013-03-18 02:09:00,55.6,48.8,29.86,South,191,0.0,5.0,78,0.00,,,0.00,Wunderground v.1.15,2013-03-18 06:09:00,
2013-03-18 02:14:00,55.6,49.2,29.86,SSE,164,2.0,4.0,79,0.00,,,0.00,Wunderground v.1.15,2013-03-18 06:14:00,
2013-03-18 02:19:00,55.7,49.3,29.86,SSW,206,2.0,5.0,79,0.00,,,0.00,Wunderground v.1.15,2013-03-18 06:19:00,
2013-03-18 02:24:00,55.9,49.5,29.86,SSE,161,3.0,6.0,79,0.00,,,0.00,Wunderground v.1.15,2013-03-18 06:24:00,
2013-03-18 02:29:00,55.9,49.5,29.86,SSE,161,2.0,6.0,79,0.00,,,0.00,Wunderground v.1.15,2013-03-18 06:29:00,
2013-03-18 02:34:00,55.9,49.5,29.86,SSW,197,0.0,5.0,79,0.00,,,0.00,Wunderground v.1.15,2013-03-18 06:34:00,
2013-03-18 02:39:00,55.9,49.8,29.86,SSE,156,4.0,7.0,80,0.00,,,0.00,Wunderground v.1.15,2013-03-18 06:39:00,
2013-03-18 02:44:00,56.0,49.9,29.86,SSE,156,0.0,3.0,80,0.00,,,0.00,Wunderground v.1.15,2013-03-18 06:44:00,
2013-03-18 02:49:00,55.9,49.8,29.86,South,179,2.0,5.0,80,0.00,,,0.00,Wunderground v.1.15,2013-03-18 06:49:00,
2013-03-18 02:54:00,55.9,49.8,29.86,South,179,0.0,5.0,80,0.00,,,0.00,Wunderground v.1.15,2013-03-18 06:54:00,
2013-03-18 02:59:00,55.9,49.8,29.86,ESE,122,2.0,7.0,80,0.00,,,0.00,Wunderground v.1.15,2013-03-18 06:59:00,
2013-03-18 03:04:00,55.9,50.2,29.86,SE,140,4.0,5.0,81,0.00,,,0.00,Wunderground v.1.15,2013-03-18 07:04:00,
2013-03-18 03:09:00,55.9,50.2,29.86,SSW,192,3.0,11.0,81,0.00,,,0.00,Wunderground v.1.15,2013-03-18 07:09:00,
2013-03-18 03:14:00,55.9,50.2,29.86,SE,126,7.0,7.0,81,0.00,,,0.00,Wunderground v.1.15,2013-03-18 07:14:00,
2013-03-18 03:19:00,56.0,50.3,29.86,South,188,0.0,14.0,81,0.00,,,0.00,Wunderground v.1.15,2013-03-18 07:19:00,
2013-03-18 03:24:00,56.0,50.3,29.86,SSW,213,3.0,6.0,81,0.00,,,0.00,Wunderground v.1.15,2013-03-18 07:24:00,
2013-03-18 03:29:00,55.9,50.2,29.86,SSW,203,3.0,6.0,81,0.00,,,0.00,Wunderground v.1.15,2013-03-18 07:29:00,
2013-03-18 03:34:00,55.9,50.5,29.86,SSW,192,3.0,6.0,82,0.00,,,0.00,Wunderground v.1.15,2013-03-18 07:34:00,
2013-03-18 03:39:00,55.7,50.3,29.86,SW,214,4.0,7.0,82,0.00,,,0.00,Wunderground v.1.15,2013-03-18 07:39:00,
2013-03-18 03:44:00,55.7,50.3,29.85,SW,229,5.0,7.0,82,0.00,,,0.00,Wunderground v.1.15,2013-03-18 07:44:00,
2013-03-18 03:49:00,55.6,50.5,29.85,SE,137,9.0,9.0,83,0.00,,,0.00,Wunderground v.1.15,2013-03-18 07:49:00,
2013-03-18 03:54:00,55.6,50.5,29.85,SW,221,2.0,6.0,83,0.00,,,0.00,Wunderground v.1.15,2013-03-18 07:54:00,
2013-03-18 03:59:00,55.7,50.9,29.85,SE,136,6.0,6.0,84,0.00,,,0.00,Wunderground v.1.15,2013-03-18 07:59:00,
2013-03-18 04:04:00,55.7,50.9,29.85,SE,143,4.0,10.0,84,0.00,,,0.00,Wunderground v.1.15,2013-03-18 08:04:00,
2013-03-18 04:09:00,55.7,50.9,29.85,WSW,237,2.0,13.0,84,0.00,,,0.00,Wunderground v.1.15,2013-03-18 08:09:00,
2013-03-18 04:14:00,55.7,50.9,29.85,SE,140,3.0,5.0,84,0.00,,,0.00,Wunderground v.1.15,2013-03-18 08:14:00,
2013-03-18 04:20:00,55.7,50.9,29.85,SSW,192,0.0,3.0,84,0.00,,,0.00,Wunderground v.1.15,2013-03-18 08:20:00,
2013-03-18 04:25:00,55.7,50.9,29.85,SSE,164,0.0,7.0,84,0.00,,,0.00,Wunderground v.1.15,2013-03-18 08:25:00,
2013-03-18 04:30:00,55.7,51.3,29.85,SSW,207,2.0,3.0,85,0.00,,,0.00,Wunderground v.1.15,2013-03-18 08:30:00,
2013-03-18 04:35:00,55.6,51.2,29.85,SSE,162,5.0,11.0,85,0.00,,,0.00,Wunderground v.1.15,2013-03-18 08:35:00,
2013-03-18 04:40:00,55.6,51.5,29.85,ESE,122,0.0,4.0,86,0.00,,,0.00,Wunderground v.1.15,2013-03-18 08:40:00,
2013-03-18 04:45:00,55.6,51.5,29.84,SSE,158,11.0,11.0,86,0.00,,,0.00,Wunderground v.1.15,2013-03-18 08:45:00,
2013-03-18 04:50:00,55.6,51.8,29.84,SSW,209,3.0,4.0,87,0.00,,,0.00,Wunderground v.1.15,2013-03-18 08:50:00,
2013-03-18 04:55:00,55.6,51.8,29.84,SSE,162,3.0,12.0,87,0.00,,,0.00,Wunderground v.1.15,2013-03-18 08:55:00,
2013-03-18 05:00:00,55.6,51.8,29.83,SSE,148,2.0,4.0,87,0.00,,,0.00,Wunderground v.1.15,2013-03-18 09:00:00,
2013-03-18 05:05:00,55.6,52.1,29.83,SSE,168,4.0,7.0,88,0.00,,,0.00,Wunderground v.1.15,2013-03-18 09:05:00,
2013-03-18 05:10:00,55.6,52.1,29.83,SSE,148,1.0,3.0,88,0.00,,,0.00,Wunderground v.1.15,2013-03-18 09:10:00,
2013-03-18 05:15:00,55.4,51.9,29.83,SE,136,5.0,10.0,88,0.00,,,0.00,Wunderground v.1.15,2013-03-18 09:15:00,
2013-03-18 05:20:00,55.4,51.9,29.83,South,191,5.0,6.0,88,0.00,,,0.00,Wunderground v.1.15,2013-03-18 09:20:00,
2013-03-18 05:25:00,55.4,52.2,29.83,SSE,160,0.0,6.0,89,0.00,,,0.00,Wunderground v.1.15,2013-03-18 09:25:00,
2013-03-18 05:30:00,55.4,52.2,29.84,SSE,166,0.0,4.0,89,0.00,,,0.00,Wunderground v.1.15,2013-03-18 09:30:00,
2013-03-18 05:35:00,55.6,52.7,29.84,SSW,203,7.0,9.0,90,0.00,,,0.00,Wunderground v.1.15,2013-03-18 09:35:00,
2013-03-18 05:40:00,55.6,52.7,29.84,SSW,200,5.0,5.0,90,0.00,,,0.00,Wunderground v.1.15,2013-03-18 09:40:00,
2013-03-18 05:45:00,55.6,52.7,29.84,South,171,3.0,6.0,90,0.00,,,0.00,Wunderground v.1.15,2013-03-18 09:45:00,
2013-03-18 05:50:00,55.4,52.5,29.84,South,184,3.0,6.0,90,0.00,,,0.00,Wunderground v.1.15,2013-03-18 09:50:00,
2013-03-18 05:55:00,55.4,52.5,29.84,SSE,148,2.0,7.0,90,0.00,,,0.00,Wunderground v.1.15,2013-03-18 09:55:00,
2013-03-18 06:00:00,55.4,52.5,29.84,SSE,148,3.0,4.0,90,0.00,,,0.00,Wunderground v.1.15,2013-03-18 10:00:00,
2013-03-18 06:05:00,55.3,52.7,29.84,South,170,2.0,6.0,91,0.00,,,0.00,Wunderground v.1.15,2013-03-18 10:05:00,
2013-03-18 06:10:00,55.4,52.8,29.84,SW,214,3.0,5.0,91,0.00,,,0.00,Wunderground v.1.15,2013-03-18 10:10:00,
2013-03-18 06:15:00,55.4,52.8,29.85,SW,214,0.0,5.0,91,0.00,,,0.00,Wunderground v.1.15,2013-03-18 10:15:00,
2013-03-18 06:20:00,55.6,53.3,29.85,South,184,3.0,5.0,92,0.00,,,0.00,Wunderground v.1.15,2013-03-18 10:20:00,
2013-03-18 06:26:00,55.6,53.3,29.85,SE,146,4.0,7.0,92,0.00,,,0.00,Wunderground v.1.15,2013-03-18 10:26:00,
2013-03-18 06:31:00,55.6,53.3,29.85,South,169,3.0,8.0,92,0.00,,,0.00,Wunderground v.1.15,2013-03-18 10:31:00,
2013-03-18 06:36:00,55.6,53.3,29.85,SSE,160,5.0,12.0,92,0.00,,,0.00,Wunderground v.1.15,2013-03-18 10:36:00,
2013-03-18 06:41:00,55.6,53.3,29.85,SSE,155,5.0,8.0,92,0.00,,,0.00,Wunderground v.1.15,2013-03-18 10:41:00,
2013-03-18 06:46:00,55.7,53.4,29.85,South,184,6.0,10.0,92,0.00,,,0.00,Wunderground v.1.15,2013-03-18 10:46:00,
2013-03-18 06:51:00,55.7,53.4,29.85,SE,128,11.0,11.0,92,0.00,,,0.00,Wunderground v.1.15,2013-03-18 10:51:00,
2013-03-18 06:56:00,55.7,53.4,29.84,SSE,153,9.0,11.0,92,0.00,,,0.00,Wunderground v.1.15,2013-03-18 10:56:00,
2013-03-18 07:01:00,55.7,53.4,29.84,South,180,4.0,7.0,92,0.00,,,0.00,Wunderground v.1.15,2013-03-18 11:01:00,
2013-03-18 07:06:00,55.7,53.4,29.84,SSW,198,2.0,7.0,92,0.00,,,0.00,Wunderground v.1.15,2013-03-18 11:06:00,
2013-03-18 07:11:00,55.9,53.9,29.84,SSE,153,7.0,10.0,93,0.00,,,0.00,Wunderground v.1.15,2013-03-18 11:11:00,
2013-03-18 07:16:00,55.9,53.9,29.84,South,177,6.0,10.0,93,0.00,,,0.00,Wunderground v.1.15,2013-03-18 11:16:00,
2013-03-18 07:22:00,55.9,53.9,29.84,South,174,6.0,9.0,93,0.00,,,0.00,Wunderground v.1.15,2013-03-18 11:22:00,
2013-03-18 07:27:00,55.9,53.9,29.84,SSE,167,2.0,10.0,93,0.00,,,0.00,Wunderground v.1.15,2013-03-18 11:27:00,
2013-03-18 07:32:00,56.0,54.0,29.84,SSW,199,5.0,9.0,93,0.00,,,0.00,Wunderground v.1.15,2013-03-18 11:32:00,
2013-03-18 07:37:00,56.0,54.0,29.84,SSE,153,3.0,12.0,93,0.00,,,0.00,Wunderground v.1.15,2013-03-18 11:37:00,
2013-03-18 07:42:00,56.0,54.0,29.84,SE,134,6.0,13.0,93,0.00,,,0.00,Wunderground v.1.15,2013-03-18 11:42:00,
2013-03-18 07:47:00,56.0,54.0,29.84,South,186,4.0,13.0,93,0.00,,,0.00,Wunderground v.1.15,2013-03-18 11:47:00,
2013-03-18 07:52:00,56.0,54.0,29.84,SSW,196,6.0,9.0,93,0.00,,,0.00,Wunderground v.1.15,2013-03-18 11:52:00,
2013-03-18 07:57:00,56.0,54.0,29.84,SSE,166,3.0,12.0,93,0.00,,,0.00,Wunderground v.1.15,2013-03-18 11:57:00,
2013-03-18 08:02:00,56.0,54.0,29.84,SSE,150,6.0,17.0,93,0.00,,,0.00,Wunderground v.1.15,2013-03-18 12:02:00,
2013-03-18 08:07:00,56.2,54.2,29.84,SSE,160,2.0,17.0,93,0.00,,,0.00,Wunderground v.1.15,2013-03-18 12:07:00,
2013-03-18 08:12:00,56.2,54.2,29.84,SSW,205,4.0,12.0,93,0.00,,,0.00,Wunderground v.1.15,2013-03-18 12:12:00,
2013-03-18 08:17:00,56.2,54.2,29.84,SSW,193,5.0,12.0,93,0.00,,,0.00,Wunderground v.1.15,2013-03-18 12:17:00,
2013-03-18 08:22:00,56.2,53.9,29.84,SE,140,3.0,5.0,92,0.00,,,0.00,Wunderground v.1.15,2013-03-18 12:22:00,
2013-03-18 08:27:00,56.3,54.0,29.84,SSE,168,2.0,8.0,92,0.00,,,0.00,Wunderground v.1.15,2013-03-18 12:27:00,
2013-03-18 08:32:00,56.3,54.0,29.84,South,179,5.0,7.0,92,0.00,,,0.00,Wunderground v.1.15,2013-03-18 12:32:00,
2013-03-18 08:37:00,56.5,54.2,29.84,SSE,151,3.0,13.0,92,0.00,,,0.00,Wunderground v.1.15,2013-03-18 12:37:00,
2013-03-18 08:42:00,56.5,54.2,29.83,South,191,1.0,9.0,92,0.00,,,0.00,Wunderground v.1.15,2013-03-18 12:42:00,
2013-03-18 08:47:00,56.5,54.2,29.83,South,177,5.0,9.0,92,0.00,,,0.00,Wunderground v.1.15,2013-03-18 12:47:00,
2013-03-18 08:52:00,56.3,54.0,29.83,SE,136,7.0,10.0,92,0.00,,,0.01,Wunderground v.1.15,2013-03-18 12:52:00,
2013-03-18 08:57:00,56.2,54.2,29.84,SSE,160,4.0,16.0,93,0.14,,,0.02,Wunderground v.1.15,2013-03-18 12:57:00,
2013-03-18 09:02:00,56.2,54.2,29.84,ESE,117,3.0,7.0,93,0.06,,,0.02,Wunderground v.1.15,2013-03-18 13:02:00,
2013-03-18 09:07:00,56.0,54.3,29.84,SSE,157,4.0,16.0,94,0.04,,,0.02,Wunderground v.1.15,2013-03-18 13:07:00,
2013-03-18 09:12:00,56.0,54.3,29.83,SSW,207,5.0,21.0,94,0.00,,,0.02,Wunderground v.1.15,2013-03-18 13:12:00,
2013-03-18 09:17:00,55.9,54.2,29.83,SE,141,12.0,21.0,94,0.00,,,0.02,Wunderground v.1.15,2013-03-18 13:17:00,
2013-03-18 09:22:00,55.9,54.5,29.83,SSE,159,0.0,12.0,95,0.00,,,0.02,Wunderground v.1.15,2013-03-18 13:22:00,
2013-03-18 09:27:00,55.9,54.5,29.84,South,185,4.0,12.0,95,0.00,,,0.03,Wunderground v.1.15,2013-03-18 13:27:00,
2013-03-18 09:33:00,55.7,54.3,29.84,SSW,195,5.0,9.0,95,0.17,,,0.04,Wunderground v.1.15,2013-03-18 13:33:00,
2013-03-18 09:38:00,55.7,54.3,29.84,South,185,3.0,11.0,95,0.07,,,0.04,Wunderground v.1.15,2013-03-18 13:38:00,
2013-03-18 09:43:00,55.9,54.8,29.83,SW,216,3.0,9.0,96,0.04,,,0.04,Wunderground v.1.15,2013-03-18 13:43:00,
2013-03-18 09:48:00,55.7,54.6,29.83,SSW,192,3.0,13.0,96,0.00,,,0.04,Wunderground v.1.15,2013-03-18 13:48:00,
2013-03-18 09:53:00,55.9,54.8,29.83,SSE,160,5.0,14.0,96,0.00,,,0.05,Wunderground v.1.15,2013-03-18 13:53:00,
2013-03-18 09:58:00,55.9,54.8,29.83,South,170,4.0,14.0,96,0.00,,,0.05,Wunderground v.1.15,2013-03-18 13:58:00,
2013-03-18 10:03:00,55.9,54.8,29.83,SW,229,7.0,7.0,96,0.00,,,0.05,Wunderground v.1.15,2013-03-18 14:03:00,
2013-03-18 10:08:00,55.9,54.8,29.83,SSW,192,3.0,7.0,96,0.00,,,0.05,Wunderground v.1.15,2013-03-18 14:08:00,
2013-03-18 10:13:00,55.7,54.6,29.83,SSE,151,7.0,10.0,96,0.00,,,0.05,Wunderground v.1.15,2013-03-18 14:13:00,
2013-03-18 10:18:00,55.7,54.6,29.83,SSE,150,10.0,12.0,96,0.00,,,0.05,Wunderground v.1.15,2013-03-18 14:18:00,
2013-03-18 10:23:00,55.7,54.6,29.83,SSE,159,3.0,14.0,96,0.00,,,0.05,Wunderground v.1.15,2013-03-18 14:23:00,
2013-03-18 10:28:00,55.7,54.6,29.83,South,191,6.0,14.0,96,0.00,,,0.06,Wunderground v.1.15,2013-03-18 14:28:00,
2013-03-18 10:33:00,55.7,54.6,29.83,SSE,160,2.0,7.0,96,0.00,,,0.06,Wunderground v.1.15,2013-03-18 14:33:00,
2013-03-18 10:38:00,55.7,54.6,29.83,South,191,3.0,9.0,96,0.00,,,0.06,Wunderground v.1.15,2013-03-18 14:38:00,
2013-03-18 10:43:00,55.7,54.6,29.83,South,186,4.0,11.0,96,0.00,,,0.06,Wunderground v.1.15,2013-03-18 14:43:00,
2013-03-18 10:48:00,55.7,54.6,29.83,South,179,3.0,11.0,96,0.00,,,0.06,Wunderground v.1.15,2013-03-18 14:48:00,
2013-03-18 10:54:00,55.7,54.3,29.83,SSW,195,5.0,10.0,95,0.00,,,0.06,Wunderground v.1.15,2013-03-18 14:54:00,
2013-03-18 10:59:00,55.7,54.3,29.82,SSW,198,2.0,11.0,95,0.00,,,0.07,Wunderground v.1.15,2013-03-18 14:59:00,
2013-03-18 11:04:00,55.7,54.3,29.82,South,191,3.0,10.0,95,0.00,,,0.07,Wunderground v.1.15,2013-03-18 15:04:00,
2013-03-18 11:09:00,55.7,54.0,29.82,SSE,156,3.0,10.0,94,0.00,,,0.07,Wunderground v.1.15,2013-03-18 15:09:00,
2013-03-18 11:14:00,55.7,54.0,29.82,SW,222,8.0,12.0,94,0.04,,,0.08,Wunderground v.1.15,2013-03-18 15:14:00,
2013-03-18 11:19:00,55.7,54.0,29.82,South,181,2.0,17.0,94,0.04,,,0.08,Wunderground v.1.15,2013-03-18 15:19:00,
2013-03-18 11:24:00,55.7,54.0,29.82,SSE,168,1.0,7.0,94,0.04,,,0.08,Wunderground v.1.15,2013-03-18 15:24:00,
2013-03-18 11:29:00,55.6,53.9,29.82,South,178,3.0,7.0,94,0.32,,,0.11,Wunderground v.1.15,2013-03-18 15:29:00,
2013-03-18 11:34:00,55.6,53.9,29.82,WSW,258,3.0,6.0,94,0.23,,,0.13,Wunderground v.1.15,2013-03-18 15:34:00,
2013-03-18 11:39:00,55.6,54.2,29.82,South,178,0.0,7.0,95,0.13,,,0.14,Wunderground v.1.15,2013-03-18 15:39:00,
2013-03-18 11:44:00,55.6,54.2,29.82,South,174,4.0,7.0,95,0.06,,,0.14,Wunderground v.1.15,2013-03-18 15:44:00,
2013-03-18 11:49:00,55.6,54.2,29.82,SSW,208,4.0,12.0,95,0.78,,,0.16,Wunderground v.1.15,2013-03-18 15:49:00,
2013-03-18 11:54:00,55.6,54.2,29.82,SSW,193,2.0,9.0,95,0.11,,,0.17,Wunderground v.1.15,2013-03-18 15:54:00,
2013-03-18 11:59:00,55.6,54.2,29.82,SSE,163,4.0,9.0,95,0.06,,,0.17,Wunderground v.1.15,2013-03-18 15:59:00,
2013-03-18 12:04:00,55.6,54.5,29.82,SSE,147,10.0,10.0,96,0.06,,,0.18,Wunderground v.1.15,2013-03-18 16:04:00,
2013-03-18 12:09:00,55.6,54.5,29.82,SSE,152,3.0,10.0,96,0.06,,,0.18,Wunderground v.1.15,2013-03-18 16:09:00,
2013-03-18 12:15:00,55.6,54.5,29.82,SSE,152,1.0,3.0,96,0.46,,,0.21,Wunderground v.1.15,2013-03-18 16:15:00,
2013-03-18 12:20:00,55.6,54.5,29.82,SSE,165,0.0,1.0,96,0.16,,,0.23,Wunderground v.1.15,2013-03-18 16:20:00,
2013-03-18 12:25:00,55.6,54.5,29.82,SE,137,3.0,5.0,96,0.10,,,0.23,Wunderground v.1.15,2013-03-18 16:25:00,
2013-03-18 12:30:00,55.6,54.5,29.82,South,178,3.0,3.0,96,0.25,,,0.25,Wunderground v.1.15,2013-03-18 16:30:00,
2013-03-18 12:35:00,55.7,54.6,29.82,SSE,168,3.0,7.0,96,0.12,,,0.26,Wunderground v.1.15,2013-03-18 16:35:00,
2013-03-18 12:40:00,55.7,54.6,29.82,SE,128,4.0,4.0,96,0.09,,,0.27,Wunderground v.1.15,2013-03-18 16:40:00,
2013-03-18 12:45:00,55.6,54.5,29.81,SE,131,9.0,11.0,96,0.08,,,0.27,Wunderground v.1.15,2013-03-18 16:45:00,
2013-03-18 12:50:00,54.8,53.7,29.81,SE,146,11.0,11.0,96,0.05,,,0.28,Wunderground v.1.15,2013-03-18 16:50:00,
2013-03-18 12:55:00,54.4,53.3,29.81,SSE,154,5.0,15.0,96,0.23,,,0.31,Wunderground v.1.15,2013-03-18 16:55:00,
2013-03-18 13:00:00,54.1,53.0,29.82,SSE,148,0.0,7.0,96,0.09,,,0.32,Wunderground v.1.15,2013-03-18 17:00:00,
2013-03-18 13:05:00,53.8,53.0,29.82,SSE,165,3.0,9.0,97,0.20,,,0.34,Wunderground v.1.15,2013-03-18 17:05:00,
2013-03-18 13:10:00,53.6,52.8,29.82,SSE,153,1.0,6.0,97,0.08,,,0.34,Wunderground v.1.15,2013-03-18 17:10:00,
2013-03-18 13:15:00,53.5,52.7,29.81,SSE,147,10.0,11.0,97,0.05,,,0.34,Wunderground v.1.15,2013-03-18 17:15:00,
2013-03-18 13:20:00,53.3,52.5,29.81,SSE,149,11.0,11.0,97,3.05,,,0.37,Wunderground v.1.15,2013-03-18 17:20:00,
2013-03-18 13:25:00,53.3,52.5,29.81,SSE,155,3.0,14.0,97,0.17,,,0.39,Wunderground v.1.15,2013-03-18 17:25:00,
2013-03-18 13:30:00,53.3,52.8,29.81,SE,139,10.0,12.0,98,0.08,,,0.40,Wunderground v.1.15,2013-03-18 17:30:00,
2013-03-18 13:35:00,53.2,52.7,29.81,ESE,114,8.0,12.0,98,0.49,,,0.46,Wunderground v.1.15,2013-03-18 17:35:00,
2013-03-18 13:40:00,53.1,52.6,29.81,SSE,150,5.0,7.0,98,0.14,,,0.47,Wunderground v.1.15,2013-03-18 17:40:00,
2013-03-18 13:45:00,53.2,52.7,29.81,SSE,148,3.0,10.0,98,0.13,,,0.48,Wunderground v.1.15,2013-03-18 17:45:00,
2013-03-18 13:50:00,53.1,52.6,29.81,SE,137,12.0,12.0,98,0.09,,,0.48,Wunderground v.1.15,2013-03-18 17:50:00,
2013-03-18 13:55:00,52.8,52.3,29.81,SSE,152,1.0,13.0,98,0.05,,,0.48,Wunderground v.1.15,2013-03-18 17:55:00,
2013-03-18 14:00:00,52.8,52.3,29.80,South,172,4.0,7.0,98,0.04,,,0.48,Wunderground v.1.15,2013-03-18 18:00:00,
2013-03-18 14:06:00,52.6,52.1,29.80,SE,138,2.0,7.0,98,0.00,,,0.48,Wunderground v.1.15,2013-03-18 18:06:00,
2013-03-18 14:11:00,52.5,52.0,29.80,SE,145,2.0,7.0,98,0.00,,,0.48,Wunderground v.1.15,2013-03-18 18:11:00,
2013-03-18 14:16:00,52.3,51.8,29.80,SSE,151,4.0,7.0,98,0.00,,,0.48,Wunderground v.1.15,2013-03-18 18:16:00,
2013-03-18 14:21:00,52.3,51.8,29.80,SSE,151,0.0,4.0,98,0.00,,,0.49,Wunderground v.1.15,2013-03-18 18:21:00,
2013-03-18 14:26:00,52.5,52.0,29.81,SSE,151,0.0,4.0,98,0.00,,,0.49,Wunderground v.1.15,2013-03-18 18:26:00,
2013-03-18 14:31:00,52.3,51.8,29.81,SSE,151,0.0,3.0,98,0.00,,,0.49,Wunderground v.1.15,2013-03-18 18:31:00,
2013-03-18 14:36:00,52.3,51.8,29.81,SSE,150,2.0,4.0,98,0.00,,,0.49,Wunderground v.1.15,2013-03-18 18:36:00,
2013-03-18 14:42:00,52.2,51.7,29.79,SSE,149,4.0,9.0,98,0.00,,,0.49,Wunderground v.1.15,2013-03-18 18:42:00,
2013-03-18 14:47:00,52.3,52.0,29.79,SSE,149,2.0,9.0,99,0.00,,,0.49,Wunderground v.1.15,2013-03-18 18:47:00,
2013-03-18 14:52:00,52.2,51.9,29.79,SE,139,3.0,6.0,99,0.00,,,0.49,Wunderground v.1.15,2013-03-18 18:52:00,
2013-03-18 14:57:00,52.0,51.7,29.79,SSE,148,2.0,7.0,99,0.00,,,0.49,Wunderground v.1.15,2013-03-18 18:57:00,
2013-03-18 15:02:00,52.0,51.7,29.79,SE,142,7.0,7.0,99,0.00,,,0.49,Wunderground v.1.15,2013-03-18 19:02:00,
2013-03-18 15:07:00,52.0,51.7,29.79,SE,139,6.0,10.0,99,0.00,,,0.49,Wunderground v.1.15,2013-03-18 19:07:00,
2013-03-18 15:12:00,52.0,51.7,29.78,SE,141,3.0,6.0,99,0.00,,,0.49,Wunderground v.1.15,2013-03-18 19:12:00,
2013-03-18 15:17:00,52.0,51.7,29.78,SE,138,1.0,6.0,99,0.00,,,0.49,Wunderground v.1.15,2013-03-18 19:17:00,
2013-03-18 15:22:00,51.9,51.6,29.78,SE,139,4.0,11.0,99,0.00,,,0.49,Wunderground v.1.15,2013-03-18 19:22:00,
2013-03-18 15:27:00,51.9,51.6,29.78,SSE,151,4.0,11.0,99,0.00,,,0.49,Wunderground v.1.15,2013-03-18 19:27:00,
2013-03-18 15:32:00,51.9,51.6,29.78,SE,143,5.0,9.0,99,0.00,,,0.49,Wunderground v.1.15,2013-03-18 19:32:00,
2013-03-18 15:37:00,51.9,51.6,29.78,SE,143,5.0,11.0,99,0.00,,,0.49,Wunderground v.1.15,2013-03-18 19:37:00,
2013-03-18 15:42:00,51.9,51.6,29.78,SSE,167,5.0,5.0,99,0.00,,,0.49,Wunderground v.1.15,2013-03-18 19:42:00,
2013-03-18 15:47:00,52.0,51.7,29.78,WNW,303,7.0,13.0,99,5.28,,,0.67,Wunderground v.1.15,2013-03-18 19:47:00,
2013-03-18 15:52:00,51.9,51.6,29.78,NW,311,6.0,10.0,99,2.12,,,0.91,Wunderground v.1.15,2013-03-18 19:52:00,
2013-03-18 15:58:00,51.4,51.1,29.83,NW,325,3.0,11.0,99,0.42,,,0.97,Wunderground v.1.15,2013-03-18 19:58:00,
2013-03-18 16:03:00,51.1,50.8,29.83,NW,325,2.0,4.0,99,0.32,,,0.99,Wunderground v.1.15,2013-03-18 20:03:00,
2013-03-18 16:08:00,51.0,50.7,29.83,NW,325,2.0,4.0,99,0.23,,,1.01,Wunderground v.1.15,2013-03-18 20:08:00,
2013-03-18 16:13:00,50.8,50.5,29.81,NW,325,0.0,2.0,99,0.22,,,1.03,Wunderground v.1.15,2013-03-18 20:13:00,
2013-03-18 16:18:00,50.5,50.2,29.81,NW,325,2.0,4.0,99,0.21,,,1.05,Wunderground v.1.15,2013-03-18 20:18:00,
2013-03-18 16:23:00,50.4,50.1,29.81,NW,325,0.0,1.0,99,0.12,,,1.06,Wunderground v.1.15,2013-03-18 20:23:00,
2013-03-18 16:28:00,50.4,50.1,29.79,NW,325,0.0,1.0,99,0.12,,,1.07,Wunderground v.1.15,2013-03-18 20:28:00,
2013-03-18 16:33:00,50.5,50.2,29.79,NW,325,0.0,3.0,99,0.12,,,1.08,Wunderground v.1.15,2013-03-18 20:33:00,
2013-03-18 16:38:00,50.8,50.5,29.79,NW,325,0.0,3.0,99,0.26,,,1.10,Wunderground v.1.15,2013-03-18 20:38:00,
2013-03-18 16:43:00,50.8,50.5,29.82,NW,325,0.0,1.0,99,0.19,,,1.11,Wunderground v.1.15,2013-03-18 20:43:00,
2013-03-18 16:48:00,50.7,50.4,29.82,NW,325,0.0,1.0,99,0.14,,,1.13,Wunderground v.1.15,2013-03-18 20:48:00,
2013-03-18 16:53:00,50.7,50.4,29.82,NW,325,0.0,4.0,99,0.21,,,1.14,Wunderground v.1.15,2013-03-18 20:53:00,
2013-03-18 16:58:00,50.7,50.4,29.80,NW,325,0.0,4.0,99,0.31,,,1.16,Wunderground v.1.15,2013-03-18 20:58:00,
2013-03-18 17:03:00,50.8,50.5,29.80,NW,325,3.0,3.0,99,0.12,,,1.17,Wunderground v.1.15,2013-03-18 21:03:00,
2013-03-18 17:08:00,50.8,50.5,29.80,NW,325,0.0,3.0,99,0.06,,,1.17,Wunderground v.1.15,2013-03-18 21:08:00,
2013-03-18 17:13:00,51.0,50.7,29.79,NW,325,0.0,3.0,99,0.05,,,1.18,Wunderground v.1.15,2013-03-18 21:13:00,
2013-03-18 17:18:00,51.3,51.0,29.79,NW,325,3.0,5.0,99,0.05,,,1.18,Wunderground v.1.15,2013-03-18 21:18:00,
2013-03-18 17:23:00,51.6,51.3,29.79,NW,325,3.0,5.0,99,0.04,,,1.18,Wunderground v.1.15,2013-03-18 21:23:00,
2013-03-18 17:28:00,51.7,51.4,29.80,NW,325,0.0,5.0,99,0.00,,,1.18,Wunderground v.1.15,2013-03-18 21:28:00,
2013-03-18 17:33:00,51.7,51.4,29.80,NW,325,0.0,4.0,99,0.00,,,1.18,Wunderground v.1.15,2013-03-18 21:33:00,
2013-03-18 17:38:00,51.7,51.4,29.80,NW,325,0.0,4.0,99,0.00,,,1.19,Wunderground v.1.15,2013-03-18 21:38:00,
2013-03-18 17:43:00,51.9,51.6,29.81,NW,325,0.0,1.0,99,0.00,,,1.19,Wunderground v.1.15,2013-03-18 21:43:00,
2013-03-18 17:49:00,52.2,51.9,29.81,West,278,2.0,7.0,99,0.08,,,1.20,Wunderground v.1.15,2013-03-18 21:49:00,
2013-03-18 17:54:00,52.5,52.2,29.81,WNW,297,3.0,13.0,99,0.09,,,1.21,Wunderground v.1.15,2013-03-18 21:54:00,
2013-03-18 17:59:00,52.8,52.5,29.80,WNW,285,7.0,14.0,99,0.12,,,1.22,Wunderground v.1.15,2013-03-18 21:59:00,
2013-03-18 18:04:00,52.8,52.5,29.80,WNW,291,0.0,9.0,99,0.14,,,1.23,Wunderground v.1.15,2013-03-18 22:04:00,
2013-03-18 18:09:00,52.6,52.3,29.80,WNW,291,2.0,9.0,99,0.08,,,1.23,Wunderground v.1.15,2013-03-18 22:09:00,
2013-03-18 18:14:00,52.3,52.0,29.73,SSE,155,3.0,4.0,99,0.05,,,1.23,Wunderground v.1.15,2013-03-18 22:14:00,
2013-03-18 18:19:00,52.3,52.0,29.73,SSE,155,1.0,4.0,99,0.00,,,1.23,Wunderground v.1.15,2013-03-18 22:19:00,
2013-03-18 18:24:00,52.3,51.8,29.73,SE,127,2.0,6.0,98,0.00,,,1.23,Wunderground v.1.15,2013-03-18 22:24:00,
2013-03-18 18:29:00,52.5,52.0,29.76,SSW,210,2.0,6.0,98,0.00,,,1.23,Wunderground v.1.15,2013-03-18 22:29:00,
2013-03-18 18:34:00,52.5,52.0,29.76,SSW,193,0.0,5.0,98,0.00,,,1.23,Wunderground v.1.15,2013-03-18 22:34:00,
2013-03-18 18:39:00,52.6,52.1,29.76,SSW,193,2.0,5.0,98,0.00,,,1.23,Wunderground v.1.15,2013-03-18 22:39:00,
2013-03-18 18:44:00,52.6,52.1,29.78,SSW,193,2.0,3.0,98,0.00,,,1.23,Wunderground v.1.15,2013-03-18 22:44:00,
2013-03-18 18:49:00,52.6,52.1,29.78,SSW,193,4.0,4.0,98,0.00,,,1.23,Wunderground v.1.15,2013-03-18 22:49:00,
2013-03-18 18:54:00,52.6,52.1,29.78,SSW,193,2.0,4.0,98,0.00,,,1.23,Wunderground v.1.15,2013-03-18 22:54:00,
2013-03-18 18:59:00,52.6,52.1,29.76,SSW,193,0.0,4.0,98,0.00,,,1.23,Wunderground v.1.15,2013-03-18 22:59:00,
2013-03-18 19:04:00,52.6,52.1,29.76,SSW,193,0.0,2.0,98,0.00,,,1.23,Wunderground v.1.15,2013-03-18 23:04:00,
2013-03-18 19:09:00,52.8,52.3,29.76,SSW,193,1.0,1.0,98,0.00,,,1.23,Wunderground v.1.15,2013-03-18 23:09:00,
2013-03-18 19:15:00,52.8,52.3,29.76,SSW,193,0.0,3.0,98,0.00,,,1.23,Wunderground v.1.15,2013-03-18 23:15:00,
2013-03-18 19:20:00,52.8,52.3,29.76,SSW,193,3.0,3.0,98,0.00,,,1.23,Wunderground v.1.15,2013-03-18 23:20:00,
2013-03-18 19:25:00,52.8,52.5,29.76,SSW,193,0.0,4.0,99,0.00,,,1.23,Wunderground v.1.15,2013-03-18 23:25:00,
2013-03-18 19:30:00,52.8,52.5,29.76,SSW,193,0.0,0.0,99,0.00,,,1.23,Wunderground v.1.15,2013-03-18 23:30:00,
2013-03-18 19:35:00,52.8,52.5,29.76,SSW,200,1.0,6.0,99,0.00,,,1.23,Wunderground v.1.15,2013-03-18 23:35:00,
2013-03-18 19:40:00,52.6,52.3,29.76,SSW,200,1.0,1.0,99,0.00,,,1.23,Wunderground v.1.15,2013-03-18 23:40:00,
2013-03-18 19:45:00,52.6,52.3,29.76,SSW,200,0.0,3.0,99,0.00,,,1.23,Wunderground v.1.15,2013-03-18 23:45:00,
2013-03-18 19:50:00,52.5,52.2,29.76,SSW,200,0.0,3.0,99,0.00,,,1.23,Wunderground v.1.15,2013-03-18 23:50:00,
2013-03-18 19:55:00,52.5,52.2,29.76,SW,228,0.0,4.0,99,0.00,,,1.23,Wunderground v.1.15,2013-03-18 23:55:00,
2013-03-18 20:00:00,52.5,52.2,29.78,SW,228,0.0,1.0,99,0.00,,,1.23,Wunderground v.1.15,2013-03-19 00:00:00,
2013-03-18 20:05:00,52.3,52.0,29.78,SW,228,0.0,2.0,99,0.00,,,1.23,Wunderground v.1.15,2013-03-19 00:05:00,
2013-03-18 20:10:00,52.2,51.9,29.78,SW,228,0.0,0.0,99,0.00,,,1.23,Wunderground v.1.15,2013-03-19 00:10:00,
2013-03-18 20:15:00,52.2,51.9,29.78,SW,228,0.0,0.0,99,0.00,,,1.23,Wunderground v.1.15,2013-03-19 00:15:00,
2013-03-18 20:20:00,52.2,51.9,29.78,SW,228,0.0,0.0,99,0.00,,,1.23,Wunderground v.1.15,2013-03-19 00:20:00,
2013-03-18 20:25:00,52.2,51.9,29.78,SW,228,0.0,1.0,99,0.00,,,1.23,Wunderground v.1.15,2013-03-19 00:25:00,
2013-03-18 20:30:00,52.0,51.7,29.78,SW,228,0.0,1.0,99,0.00,,,1.23,Wunderground v.1.15,2013-03-19 00:30:00,
2013-03-18 20:35:00,52.0,51.7,29.78,SW,228,0.0,1.0,99,0.00,,,1.23,Wunderground v.1.15,2013-03-19 00:35:00,
2013-03-18 20:40:00,51.7,51.4,29.78,SW,228,0.0,0.0,99,0.00,,,1.23,Wunderground v.1.15,2013-03-19 00:40:00,
2013-03-18 20:45:00,51.6,51.3,29.79,SW,228,0.0,1.0,99,0.00,,,1.23,Wunderground v.1.15,2013-03-19 00:45:00,
2013-03-18 20:50:00,51.6,51.3,29.79,SW,228,0.0,0.0,99,0.00,,,1.23,Wunderground v.1.15,2013-03-19 00:50:00,
2013-03-18 20:55:00,51.6,51.3,29.79,SW,228,0.0,0.0,99,0.00,,,1.23,Wunderground v.1.15,2013-03-19 00:55:00,
2013-03-18 21:00:00,51.4,51.1,29.79,SW,228,0.0,1.0,99,0.00,,,1.23,Wunderground v.1.15,2013-03-19 01:00:00,
2013-03-18 21:05:00,51.3,51.0,29.79,SW,228,0.0,2.0,99,0.00,,,1.23,Wunderground v.1.15,2013-03-19 01:05:00,
2013-03-18 21:10:00,51.4,51.1,29.79,SW,228,0.0,0.0,99,0.00,,,1.23,Wunderground v.1.15,2013-03-19 01:10:00,
2013-03-18 21:15:00,51.4,51.1,29.80,SW,228,0.0,1.0,99,0.00,,,1.23,Wunderground v.1.15,2013-03-19 01:15:00,
2013-03-18 21:20:00,50.8,50.5,29.80,SW,228,0.0,1.0,99,0.00,,,1.23,Wunderground v.1.15,2013-03-19 01:20:00,
2013-03-18 21:25:00,50.7,50.4,29.80,SW,229,0.0,3.0,99,0.00,,,1.23,Wunderground v.1.15,2013-03-19 01:25:00,
2013-03-18 21:30:00,51.0,50.7,29.80,SW,228,0.0,1.0,99,0.00,,,1.23,Wunderground v.1.15,2013-03-19 01:30:00,
2013-03-18 21:35:00,50.5,50.2,29.80,SW,228,0.0,2.0,99,0.00,,,1.23,Wunderground v.1.15,2013-03-19 01:35:00,
2013-03-18 21:41:00,50.5,50.2,29.80,SW,228,0.0,1.0,99,0.00,,,1.23,Wunderground v.1.15,2013-03-19 01:41:00,
2013-03-18 21:46:00,50.8,50.5,29.80,SW,228,0.0,2.0,99,0.00,,,1.23,Wunderground v.1.15,2013-03-19 01:46:00,
2013-03-18 21:51:00,50.7,50.4,29.80,SW,228,0.0,1.0,99,0.00,,,1.23,Wunderground v.1.15,2013-03-19 01:51:00,
2013-03-18 21:56:00,50.8,50.5,29.81,SW,228,0.0,1.0,99,0.00,,,1.23,Wunderground v.1.15,2013-03-19 01:56:00,
2013-03-18 22:01:00,51.0,50.7,29.81,SW,228,2.0,3.0,99,0.00,,,1.23,Wunderground v.1.15,2013-03-19 02:01:00,
2013-03-18 22:06:00,51.0,50.7,29.81,SW,228,0.0,3.0,99,0.00,,,1.23,Wunderground v.1.15,2013-03-19 02:06:00,
2013-03-18 22:12:00,51.4,51.1,29.82,SW,228,0.0,1.0,99,0.00,,,1.23,Wunderground v.1.15,2013-03-19 02:12:00,
2013-03-18 22:17:00,51.6,51.3,29.82,SW,228,0.0,2.0,99,0.00,,,1.23,Wunderground v.1.15,2013-03-19 02:17:00,
2013-03-18 22:22:00,51.6,51.3,29.82,SW,228,0.0,1.0,99,0.00,,,1.23,Wunderground v.1.15,2013-03-19 02:22:00,
2013-03-18 22:27:00,51.4,51.1,29.83,SW,228,0.0,3.0,99,0.00,,,1.23,Wunderground v.1.15,2013-03-19 02:27:00,
2013-03-18 22:32:00,51.3,51.0,29.83,SW,228,0.0,0.0,99,0.00,,,1.23,Wunderground v.1.15,2013-03-19 02:32:00,
2013-03-18 22:37:00,51.4,51.1,29.83,SW,229,0.0,0.0,99,0.00,,,1.23,Wunderground v.1.15,2013-03-19 02:37:00,
2013-03-18 22:42:00,51.4,51.1,29.83,SW,228,0.0,0.0,99,0.00,,,1.23,Wunderground v.1.15,2013-03-19 02:42:00,
2013-03-18 22:47:00,51.3,51.0,29.83,SW,228,0.0,0.0,99,0.00,,,1.23,Wunderground v.1.15,2013-03-19 02:47:00,
2013-03-18 22:52:00,51.4,51.1,29.83,SW,229,0.0,0.0,99,0.00,,,1.23,Wunderground v.1.15,2013-03-19 02:52:00,
2013-03-18 22:57:00,51.6,51.3,29.84,SW,229,0.0,2.0,99,0.00,,,1.23,Wunderground v.1.15,2013-03-19 02:57:00,
2013-03-18 23:02:00,51.6,51.3,29.84,SW,228,0.0,1.0,99,0.00,,,1.23,Wunderground v.1.15,2013-03-19 03:02:00,
2013-03-18 23:07:00,51.6,51.3,29.84,SW,228,0.0,1.0,99,0.00,,,1.23,Wunderground v.1.15,2013-03-19 03:07:00,
2013-03-18 23:12:00,51.6,51.3,29.84,SW,228,0.0,1.0,99,0.00,,,1.24,Wunderground v.1.15,2013-03-19 03:12:00,
2013-03-18 23:17:00,51.6,51.3,29.84,SW,228,0.0,2.0,99,0.00,,,1.24,Wunderground v.1.15,2013-03-19 03:17:00,
2013-03-18 23:22:00,51.6,51.3,29.84,SW,228,2.0,3.0,99,0.00,,,1.24,Wunderground v.1.15,2013-03-19 03:22:00,
2013-03-18 23:27:00,51.7,51.4,29.85,SW,228,1.0,3.0,99,0.00,,,1.24,Wunderground v.1.15,2013-03-19 03:27:00,
2013-03-18 23:32:00,51.7,51.4,29.85,SW,228,2.0,3.0,99,0.00,,,1.24,Wunderground v.1.15,2013-03-19 03:32:00,
2013-03-18 23:37:00,51.6,51.3,29.85,SW,228,2.0,3.0,99,0.00,,,1.24,Wunderground v.1.15,2013-03-19 03:37:00,
2013-03-18 23:42:00,51.6,51.3,29.86,SW,228,2.0,2.0,99,0.00,,,1.24,Wunderground v.1.15,2013-03-19 03:42:00,
2013-03-18 23:47:00,51.6,51.3,29.86,West,262,3.0,5.0,99,0.00,,,1.24,Wunderground v.1.15,2013-03-19 03:47:00,
2013-03-18 23:52:00,51.7,51.4,29.86,NW,307,5.0,7.0,99,0.00,,,1.24,Wunderground v.1.15,2013-03-19 03:52:00,
2013-03-18 23:57:00,51.9,51.6,29.87,NNW,335,4.0,8.0,99,0.00,,,1.24,Wunderground v.1.15,2013-03-19 03:57:00,